Location: Palau
(42.3086°N, 3.1507°E)
Time: 19:06:00
(UTC+00:00)

X-37B - Pass Details

Date: 13 March 2021
Orbit: 380 x 394 km, 45.0° (Epoch: 07 April)

Event Time Altitude Azimuth Distance (km) Brightness Sun altitude
Rises 20:29:53 0° 271° (W) 2,274 5.4 -29.2°
Reaches altitude 10° 20:31:59 10° 276° (W) 1,422 4.2 -29.6°
Enters shadow 20:32:18 12° 278° (W) 1,298 4.0 -29.6°
